New Philadelphia, OH

10:44 PM EDT on October 18, 2017 (GMT -0400)
Clever

Weather History for KPHD - August, 2012

Change the Weather History Date:

Friday, August 31, 2012

  Actual Average Record
Temperature  
Mean Temperature 72 °F 69 °F  
Max Temperature 93 °F 81 °F 95 °F (1993)
Min Temperature 51 °F 58 °F 41 °F (1986)
Degree Days  
Heating Degree Days 0 0  
Month to date heating degree days 1 0  
Since 1 June heating degree days 19 45  
Since 1 July heating degree days 1 10  
Cooling Degree Days 7 5  
Month to date cooling degree days 189 202  
Year to date cooling degree days 893 622  
Since 1 June cooling degree days 746 579  
Growing Degree Days 22 (Base 50)    
Moisture  
Dew Point 60 °F    
Average Humidity 67    
Maximum Humidity 100    
Minimum Humidity 33    
Precipitation  
Precipitation 0.01 in 0.13 in 2.18 in (1975)
Month to date precipitation 2.11 3.59  
Year to date precipitation 18.52 26.95  
Sea Level Pressure  
Sea Level Pressure 30.10 in    
Wind  
Wind Speed 4 mph (SW)    
Max Wind Speed 15 mph    
Max Gust Speed 22 mph    
Visibility 9 miles    
Events      
T = Trace of Precipitation, MM = Missing Value Source: NWS Daily Summary

Daily Weather History Graph

Daily Weather History Graph

Search for Another Location

Airport or City:

Trip Planner

Search our weather history database for the weather conditions in past years. The results will help you decide how hot, cold, wet, or windy it might be!

Date:

Astronomy

Aug. 31, 2012 Rise Set
Actual Time 6:52 AM EDT 7:58 PM EDT
Civil Twilight 6:24 AM EDT 8:26 PM EDT
Nautical Twilight 5:50 AM EDT 8:59 PM EDT
Astronomical Twilight 5:15 AM EDT 9:34 PM EDT
Moon 7:43 PM EDT (8/31) 6:56 AM EDT (8/31)
Length of Visible Light 14h 02m
Length of Day
13h 06m
Full, 100% of the Moon is Illuminated
Aug 31
Full
Sep 8
Last Quarter
Sep 15
New
Sep 22
First Quarter
Sep 29
Full

Hourly Weather History & Observations

Time (EDT) Temp. Heat Index Dew Point Humidity Pressure Visibility Wind Dir Wind Speed Gust Speed Precip Events Conditions
12:53 AM 57.0 °F - 54.0 °F 89% 30.10 in 10.0 mi Calm Calm - N/A   Clear
1:53 AM 55.9 °F - 54.0 °F 93% 30.10 in 10.0 mi Calm Calm - N/A   Clear
2:53 AM 55.0 °F - 53.1 °F 93% 30.10 in 10.0 mi ESE 3.5 mph - N/A   Clear
3:53 AM 54.0 °F - 52.0 °F 93% 30.11 in 4.0 mi Calm Calm - N/A   Clear
4:53 AM 53.1 °F - 52.0 °F 96% 30.11 in 8.0 mi Calm Calm - 0.01 in   Clear
5:53 AM 52.0 °F - 51.1 °F 97% 30.11 in 8.0 mi Calm Calm - N/A   Clear
6:53 AM 53.1 °F - 52.0 °F 96% 30.13 in 6.0 mi ESE 3.5 mph - N/A   Clear
7:53 AM 55.9 °F - 54.0 °F 93% 30.16 in 7.0 mi Calm Calm - N/A   Clear
8:53 AM 62.1 °F - 57.9 °F 86% 30.16 in 10.0 mi SE 3.5 mph - N/A   Clear
9:53 AM 71.1 °F - 61.0 °F 70% 30.15 in 10.0 mi SSE 3.5 mph - N/A   Clear
10:53 AM 81.0 °F 82.7 °F 64.9 °F 58% 30.15 in 10.0 mi Variable 5.8 mph - N/A   Clear
11:53 AM 84.9 °F 87.1 °F 66.0 °F 53% 30.14 in 10.0 mi WSW 9.2 mph - N/A   Clear
12:53 PM 88.0 °F 89.6 °F 64.9 °F 46% 30.13 in 10.0 mi WSW 11.5 mph 17.3 mph N/A   Clear
1:53 PM 91.0 °F 93.0 °F 64.9 °F 42% 30.11 in 10.0 mi West 8.1 mph - N/A   Clear
2:53 PM 91.9 °F 91.8 °F 61.0 °F 35% 30.09 in 10.0 mi West 11.5 mph 18.4 mph N/A   Clear
3:53 PM 93.0 °F 94.6 °F 64.0 °F 38% 30.07 in 10.0 mi West 10.4 mph 16.1 mph N/A   Clear
4:53 PM 93.0 °F 93.0 °F 61.0 °F 34% 30.06 in 10.0 mi Variable 4.6 mph 18.4 mph N/A   Partly Cloudy
5:53 PM 91.0 °F 90.5 °F 60.1 °F 35% 30.04 in 10.0 mi West 6.9 mph 16.1 mph N/A   Clear
6:53 PM 89.1 °F 90.0 °F 63.0 °F 42% 30.05 in 10.0 mi West 4.6 mph - N/A   Clear
7:53 PM 81.0 °F 83.3 °F 66.9 °F 62% 30.04 in 10.0 mi Calm Calm - N/A   Clear
8:53 PM 79.0 °F - 66.9 °F 66% 30.06 in 10.0 mi Calm Calm - N/A   Overcast
9:53 PM 75.0 °F - 66.9 °F 76% 30.07 in 10.0 mi Calm Calm - N/A   Clear
10:53 PM 75.0 °F - 68.0 °F 79% 30.06 in 10.0 mi Calm Calm - N/A   Clear
11:53 PM 75.0 °F - 69.1 °F 82% 30.07 in 10.0 mi Calm Calm - N/A   Clear